Regional Weather Roundup
Issued by NWS Newport/Morehead, NC

Current Version | Previous Version | Graphics & Text | Print | Product List | Glossary Off
Versions: 1 2 3 4 5 6 7 8 9 10 11 12 13 14 15 16 17 18 19 20 21 22 23 24 25 26 27 28 29 30 31 32 33 34 35 36 37 38 39 40 41 42 43 44 45 46 47 48 49 50

000
ASUS42 KMHX 050325
RWRMHX
WEATHER ROUNDUP FOR EASTERN NORTH CAROLINA
NATIONAL WEATHER SERVICE NEWPORT/MOREHEAD CITY NC
1100 PM EDT WED MAY 04 2016

NOTE: "FAIR" INDICATES FEW OR NO CLOUDS BELOW 12,000 FEET
WITH NO SIGNIFICANT WEATHER AND/OR OBSTRUCTIONS TO VISIBILITY

NCZ015>017-031-032-045>047-102-103-050400-
NORTH COAST

CITY           SKY/WX    TMP DP  RH WIND       PRES   REMARKS
EDENTON        CLOUDY    60  60 100 NE8       29.64F
ELIZABETH CITY CLOUDY    57  55  93 NE13      29.65F
KITTY HAWK     CLOUDY    56  55  96 NE6       29.63F
MANTEO         CLOUDY    56  56  97 NE12      29.63F

$$

NCZ045>047-081-094-103-104-050400-
CENTRAL COAST

CITY           SKY/WX    TMP DP  RH WIND       PRES   REMARKS
FRISCO         CLOUDY    60  59  96 NE12G21   29.61F
SWANQUARTER    NOT AVBL

$$

NCZ095-097-098-100-101-050400-
SOUTHERN COAST

CITY           SKY/WX    TMP DP  RH WIND       PRES   REMARKS
BEAUFORT       CLOUDY    67  65  93 NE6       29.60S
CEDAR ISLAND   NOT AVBL
JACKSONVILLE   CLEAR     64  56  75 N6        29.60F
PINEY ISLAND   NOT AVBL
WILMINGTON     MOCLDY    66  60  81 N3        29.61S


$$

NCZ011>013-027>030-043-044-078>080-089-090>093-098-050400-
COASTAL PLAIN

CITY           SKY/WX    TMP DP  RH WIND       PRES   REMARKS
AHOSKIE        CLOUDY    60  57  91 E5        29.64F
CLINTON        PTCLDY    63  60  91 CALM      29.62F
ELIZABETHTOWN  PTCLDY    63  56  80 CALM      29.62S
GOLDSBORO      CLOUDY    64  62  94 N2        29.60F
GREENVILLE     MOCLDY    61  61 100 CALM      29.65F
HAVELOCK       MOCLDY    66  65  96 NE9       29.62S
KENANSVILLE    PTCLDY    59  57  94 CALM      29.62F
KINSTON        CLEAR     60  57  92 CALM      29.62F
NEW BERN       PTCLDY    65  61  87 NE5       29.63R
RICHLANDS      PTCLDY    60  58  92 CALM      29.62F
ROCKY MOUNT    CLOUDY    62  60  93 CALM      29.63R
WASHINGTON     CLOUDY    62  61  94 NE10      29.62S FOG
WHITEVILLE     NOT AVBL

$$

AMZ130-135-150-152-154-156-158-170-250-252-270-ANZ085-086-088-633-658-670-050400-
MARINE OBSERVATIONS

STATION/POSITION TIME  TEMP    WIND        PRES    WAVE   SWELL
                       AIR SEA DIR/SP/G            HT/PER HT/PER
                 (UTC) (F)     (DEG/KT/KT) (MB)    (FT/S) (FT/S)
CHESAPEAKE LIGHT 0300   51      50/ 16/ 18 1004.9
64 E VA BEACH    0250   52 54   10/ 12/ 16 1003.6    4/ 8   3/ 8
DUCK             0300      60              1003.4
2 E DUCK         0241      59                N/A     4/ 4
OREGON INLET     0300      66              1003.0
13E OREGON INLT  0300      59                N/A     4/ 8   3/ 8
HATTERAS CG      0300      70              1002.1
DIAMOND BUOY     0250   64 70   30/ 14/ 17 1002.5    4/ 7   2/ 7
CAPE LOOKOUT     0300   69     340/  3/  3 1001.8
BEAUFORT LAB     0300      67              1001.6
30 SE NEW RVR IN 0255      72                N/A     4/ 6
27 SE WRIGHTSVLE 0308   71 72  290/  6/ 10 1002.0
5 SE WRIGHTSVLE  0208   70 70  280/  2/  4 1003.3
225 S CAPE HAT   0250   74 74  240/ 17/ 19 1003.4    5/ 6   2/ 9
41 SE CHARLESTON 0250   74 74  280/ 16/ 17 1002.5    3/ 4   2/ 7

$$



USA.gov is the U.S. government's official web portal to all federal, state and local government web resources and services.